Weather History for GMME - March, 2014

Change the Weather History Date:

Thursday, March 13, 2014

  Actual Average Record
Temperature  
Mean Temperature 54 °F -  
Max Temperature 68 °F 66 °F - ()
Min Temperature 41 °F 49 °F - ()
Degree Days  
Heating Degree Days 10    
Growing Degree Days 4 (Base 50)    
Moisture  
Dew Point 45 °F    
Average Humidity 72    
Maximum Humidity 93    
Minimum Humidity 37    
Precipitation  
Precipitation 0.00 in 0.08 in - ()
Sea Level Pressure  
Sea Level Pressure 30.11 in    
Wind  
Wind Speed 5 mph ()    
Max Wind Speed 18 mph    
Max Gust Speed -    
Visibility 5.0 miles    
Events      
T = Trace of Precipitation, MM = Missing Value Source: Averaged Metar Reports

Daily Weather History Graph

Daily Weather History Graph

Search for Another Location

Airport or City:

Trip Planner

Search our weather history database for the weather conditions in past years. The results will help you decide how hot, cold, wet, or windy it might be!

Date:

Astronomy

Mar. 13, 2014 Rise Set
Actual Time 6:40 AM WET 6:33 PM WET
Civil Twilight 6:15 AM WET 6:58 PM WET
Nautical Twilight 5:46 AM WET 7:27 PM WET
Astronomical Twilight 5:17 AM WET 7:56 PM WET
Moon 3:52 PM WET (3/13) 4:32 AM WET (3/13)
Length of Visible Light 12h 42m
Length of Day
11h 52m
Waxing Gibbous, 90% of the Moon is Illuminated
Mar 13
Waxing Gibbous
Mar 16
Full
Mar 24
Last Quarter
Mar 30
New
Apr 7
First Quarter

Hourly Weather History & Observations

Time (WET) Temp. Windchill Dew Point Humidity Pressure Visibility Wind Dir Wind Speed Gust Speed Precip Events Conditions
12:00 AM 51 °F - 44 °F 68% 30.08 in 5 mi SE 3.5 mph - -   Clear
12:00 AM 51.8 °F - 42.8 °F 71% 30.06 in 5.0 mi SE 3.5 mph - N/A   Unknown
12:30 AM 50.0 °F - 42.8 °F 76% 30.06 in 5.0 mi SE 3.5 mph - N/A   Unknown
1:00 AM 50.0 °F - 42.8 °F 76% 30.06 in 5.0 mi Variable 2.3 mph - N/A   Unknown
1:30 AM 48.2 °F - 42.8 °F 82% 30.06 in 5.0 mi Variable 1.2 mph - N/A   Unknown
2:00 AM 48.2 °F - 41.0 °F 76% 30.06 in 5.0 mi Variable 1.2 mph - N/A   Unknown
2:30 AM 44.6 °F 43.1 °F 39.2 °F 81% 30.06 in 5.0 mi South 3.5 mph - N/A   Unknown
3:00 AM 45 °F - 41 °F 80% 30.08 in 6 mi SSE 2.3 mph - -   Clear
3:00 AM 44.6 °F - 41.0 °F 87% 30.06 in - SSE 2.3 mph - N/A   Clear
3:30 AM 42.8 °F - 39.2 °F 87% 30.06 in - Variable 1.2 mph - N/A   Clear
4:00 AM 44.6 °F - 41.0 °F 87% 30.06 in - Variable 2.3 mph - N/A   Clear
4:30 AM 44.6 °F 43.1 °F 41.0 °F 87% 30.06 in - SE 3.5 mph - N/A   Clear
5:00 AM 44.6 °F 43.1 °F 41.0 °F 87% 30.06 in - ESE 3.5 mph - N/A   Clear
5:30 AM 44.6 °F - 41.0 °F 87% 30.06 in - Variable 2.3 mph - N/A   Clear
6:00 AM 44 °F - 40 °F 82% 30.10 in 6 mi SSE 3.5 mph - -   Clear
6:00 AM 44.6 °F 43.1 °F 41.0 °F 87% 30.06 in - SSE 3.5 mph - N/A   Clear
6:30 AM 42.8 °F - 39.2 °F 87% 30.09 in - NNW 1.2 mph - N/A   Clear
7:00 AM 42.8 °F 41.1 °F 39.2 °F 87% 30.09 in - NE 3.5 mph - N/A   Clear
7:30 AM 44.6 °F - 42.8 °F 93% 30.12 in - Variable 2.3 mph - N/A   Clear
8:00 AM 50.0 °F - 44.6 °F 82% 30.12 in - NE 4.6 mph - N/A   Clear
8:30 AM 51.8 °F - 42.8 °F 71% 30.12 in - East 3.5 mph - N/A   Clear
9:00 AM 54 °F - 44 °F 60% 30.16 in 6 mi ENE 5.8 mph - -   Clear
9:00 AM 53.6 °F - 44.6 °F 72% 30.15 in - ENE 5.8 mph - N/A   Clear
9:30 AM 57.2 °F - 44.6 °F 63% 30.15 in - ENE 5.8 mph - N/A   Clear
10:00 AM 60.8 °F - 46.4 °F 59% 30.15 in - ENE 5.8 mph - N/A   Clear
10:30 AM 62.6 °F - 46.4 °F 55% 30.15 in - NE 5.8 mph - N/A   Clear
11:00 AM 62.6 °F - 46.4 °F 55% 30.12 in - ENE 5.8 mph - N/A   Clear
11:30 AM 64.4 °F - 46.4 °F 52% 30.12 in - ENE 5.8 mph - N/A   Clear
12:00 PM 65 °F - 47 °F 42% 30.13 in 6 mi East 5.8 mph - -  
12:00 PM 66.2 °F - 48.2 °F 52% 30.12 in - East 5.8 mph - N/A   Clear
1:00 PM 68.0 °F - 42.8 °F 40% 30.09 in 6.2 mi NE 9.2 mph - N/A   Scattered Clouds
1:30 PM 68.0 °F - 41.0 °F 37% 30.09 in 6.2 mi NNE 11.5 mph - N/A   Scattered Clouds
2:00 PM 66.2 °F - 48.2 °F 52% 30.09 in 6.2 mi North 16.1 mph - N/A   Scattered Clouds
2:30 PM 66.2 °F - 48.2 °F 52% 30.09 in 6.2 mi North 16.1 mph - N/A   Scattered Clouds
3:00 PM 65 °F - 47 °F 42% 30.10 in 6 mi North 17.3 mph - -   Partly Cloudy
3:00 PM 64.4 °F - 48.2 °F 56% 30.09 in 6.2 mi North 16.1 mph - N/A   Scattered Clouds
3:30 PM 64.4 °F - 46.4 °F 52% 30.09 in 6.2 mi North 18.4 mph - N/A   Scattered Clouds
4:00 PM 64.4 °F - 44.6 °F 49% 30.09 in 6.2 mi North 15.0 mph - N/A   Scattered Clouds
4:30 PM 62.6 °F - 46.4 °F 55% 30.09 in 6.2 mi North 15.0 mph - N/A   Scattered Clouds
5:00 PM 62.6 °F - 46.4 °F 55% 30.09 in 6.2 mi North 15.0 mph - N/A   Scattered Clouds
5:30 PM 62.6 °F - 46.4 °F 55% 30.12 in 6.2 mi North 15.0 mph - N/A   Scattered Clouds
6:00 PM 60 °F - 48 °F 54% 30.14 in 6 mi NNE 11.5 mph - -   Partly Cloudy
6:00 PM 60.8 °F - 48.2 °F 63% 30.12 in 6.2 mi NNE 11.5 mph - N/A   Scattered Clouds
6:34 PM 59.0 °F - 50.0 °F 72% 30.12 in 3.7 mi NNE 8.1 mph - N/A   Scattered Clouds
7:00 PM 57.2 °F - 50.0 °F 77% 30.12 in 3.7 mi NNE 5.8 mph - N/A   Scattered Clouds
7:30 PM 55.4 °F - 50.0 °F 82% 30.15 in 3.7 mi NNE 3.5 mph - N/A   Partly Cloudy
8:00 PM 53.6 °F - 50.0 °F 88% 30.15 in 3.7 mi NNE 1.2 mph - N/A   Partly Cloudy
8:30 PM 51.8 °F - 48.2 °F 88% 30.15 in 3.1 mi Calm Calm - N/A   Partly Cloudy
9:00 PM 50 °F - 47 °F 85% 30.19 in 3 mi Calm Calm - -   Scattered Clouds
9:00 PM 50.0 °F - 46.4 °F 87% 30.15 in 3.1 mi Calm Calm - N/A   Partly Cloudy
9:30 PM 48.2 °F - 46.4 °F 93% 30.18 in 3.1 mi South 1.2 mph - N/A   Partly Cloudy
10:00 PM 46.4 °F - 44.6 °F 93% 30.18 in 3.1 mi South 1.2 mph - N/A   Partly Cloudy
10:30 PM 46.4 °F - 44.6 °F 93% 30.18 in 3.1 mi SSW 2.3 mph - N/A   Partly Cloudy
11:00 PM 46.4 °F - 44.6 °F 93% 30.18 in 3.1 mi South 1.2 mph - N/A   Partly Cloudy
11:30 PM 46.4 °F 45.2 °F 44.6 °F 93% 30.15 in 3.1 mi SSE 3.5 mph - N/A   Partly Cloudy